[[{"header":{"parameterUnit":"m.s-1","parameterCategory":1,"la1":30.2991,"la2":30.254,"lo1":-89.0895,"lo2":-89.0444,"dy":0.0017,"dx":0.0017,"nx":28,"ny":28,"refTime":"2025-09-06T09:00:00:Z","depth":0,"parameterNumber":2,"parameterNumberName":"U-component_of_WINDS"},"data":[0,0,0,0,0,0,0,0,0,0,0,0,0,0,0,0,0,0,0,0,0,0,0,0,0,0,0,0,0,0,0,0,0,0,0,0,0,0,0,0,0,0,0,0,0,0,0,0,0,0,0,0,0,0,0,0,0,0,-2.8282,-2.8282,0,-2.8331,-2.8332,-2.8332,-2.8234,-2.8231,-2.8228,-2.8225,-2.8277,-2.8281,-2.8285,0,0,0,0,0,0,0,0,0,0,0,0,0,-2.8104,-2.8108,-2.8282,-2.8282,-2.8283,-2.8331,-2.8332,-2.8332,-2.8235,-2.8231,-2.8227,-2.8223,-2.8275,-2.8281,-2.8286,0,0,0,0,0,0,0,0,0,0,0,0,0,-2.817,-2.8109,-2.8282,-2.824,-2.8237,-2.8331,-2.8332,-2.8332,-2.8236,-2.8231,-2.8226,-2.8222,-2.8274,-2.828,-2.8287,-2.8423,0,0,-2.8307,-2.8309,0,0,0,0,0,0,0,0,-2.8166,-2.8177,-2.8246,-2.8243,-2.824,-2.8272,-2.8288,-2.8363,-2.8237,-2.8236,-2.8225,-2.8219,-2.8279,-2.8285,-2.8305,-2.8426,-2.8428,-2.8307,-2.8311,-2.8314,-2.8316,0,0,0,0,0,0,0,-2.8162,-2.8174,-2.8301,-2.8247,-2.8243,-2.8219,-2.8223,-2.8302,-2.8284,-2.8236,-2.8229,-2.8236,-2.8277,-2.8299,-2.8305,-2.8429,-2.8307,-2.8313,-2.8317,-2.8319,-2.8664,-2.8669,0,0,0,0,0,0,-2.8163,-2.8171,-2.83,-2.8303,-2.819,-2.8226,-2.8231,-2.8266,-2.8283,-2.8281,-2.824,-2.8231,-2.829,-2.8298,-2.8307,-2.8468,-2.8314,-2.832,-2.8324,-2.8659,-2.8665,-2.8671,0,0,0,0,0,0,-2.8159,-2.8175,-2.8298,-2.8235,-2.8249,-2.8234,-2.8275,-2.827,-2.8292,-2.8286,-2.8283,-2.8266,-2.8286,-2.8297,-2.8395,-2.8469,-2.8323,-2.8329,-2.8653,-2.8661,-2.8668,-2.8793,0,0,0,0,0,0,-2.8154,-2.8174,-2.8226,-2.8237,-2.8252,-2.8386,-2.828,-2.8274,-2.8303,-2.8292,-2.8309,-2.8308,-2.8283,-2.8386,-2.8401,-2.8475,-2.8334,-2.8646,-2.8656,-2.8665,-2.8782,-2.8804,-2.8823,0,0,0,0,0,-2.8148,-2.826,-2.823,-2.8246,-2.8317,-2.839,-2.8399,-2.8368,-2.831,-2.8362,-2.8358,-2.8307,-2.8458,-2.8396,-2.8413,-2.849,-2.8641,-2.8653,-2.8665,-2.8773,-2.88,-2.8822,0,0,0,0,0,0,-2.826,-2.8261,-2.8227,-2.8345,-2.8368,-2.8373,-2.8439,-2.8398,-2.8438,-2.8426,-2.8387,-2.8391,-2.8497,-2.8503,-2.8435,-2.8623,-2.8539,-2.8555,-2.8616,-2.8641,-2.8661,-2.8659,-2.834,0,0,0,0,0,-2.8298,-2.8357,-2.8354,-2.8459,-2.8472,-2.8454,-2.8484,-2.8458,-2.8481,-2.849,-2.8493,-2.8517,-2.857,-2.8605,-2.8653,-2.8781,-2.8784,-2.8842,-2.8863,-2.8879,-2.8894,-2.8962,-2.8989,-2.8709,-2.8709,-2.8709,0,0,-2.8378,-2.8385,-2.8425,-2.8481,-2.8496,-2.8558,-2.8463,-2.8532,-2.8578,-2.8501,-2.8593,-2.8596,-2.862,-2.8734,-2.8784,-2.8742,-2.8971,-2.8894,-2.8908,-2.8914,-2.8977,-2.9004,-2.9027,-2.8717,-2.8716,-2.8714,0,0,-2.8555,-2.8567,-2.8655,-2.8672,-2.8695,-2.8681,-2.8702,-2.8713,-2.8712,-2.8804,-2.8747,-2.8801,-2.8892,-2.8911,-2.8933,-2.9116,-2.9071,-2.9132,-2.924,-2.9306,-2.9329,-2.9348,-2.9414,-2.9438,-2.9147,-2.9147,-2.9147,0,-2.8652,-2.8743,-2.8706,-2.878,-2.8806,-2.8737,-2.8827,-2.8844,-2.8883,-2.8903,-2.8854,-2.8967,-2.8978,-2.9095,-2.914,-2.9159,-2.9183,-2.9132,-2.9328,-2.9347,-2.9365,-2.9428,-2.9452,-2.9154,-2.9154,-2.9153,-2.9152,0,-2.8862,-2.8925,-2.8994,-2.9032,-2.9065,-2.9147,-2.9122,-2.916,-2.9131,-2.9122,-2.9216,-2.9227,-2.9276,-2.9301,-2.9273,-2.9414,-2.9388,-2.9335,-2.925,-2.9399,-2.9458,-2.9481,-2.9165,-2.9162,-2.916,-2.9158,0,0,-2.9114,-2.9128,-2.9154,-2.917,-2.919,-2.9238,-2.9316,-2.9363,-2.9397,-2.9425,-2.9489,-2.9567,-2.9517,-2.9542,-2.9516,-2.9574,-2.9719,-2.9514,-2.9513,-2.9553,-2.9876,-2.9917,-2.9946,-2.9688,-2.9692,-2.9696,-2.9874,0,-2.9291,-2.9425,-2.9392,-2.9525,-2.9584,-2.9518,-2.9585,-2.9604,-2.9598,-2.9647,-2.9639,-2.9696,-2.9625,-2.964,-2.9695,-2.969,-2.9784,-2.9676,-2.9749,-2.9752,-2.9747,-2.9976,-3.002,-3.0188,-2.9897,-2.99,-2.9903,0,-2.9516,-2.9552,-2.9691,-2.9699,-2.9723,-2.9784,-2.9824,-2.9871,-2.9891,-2.9882,-2.9909,-2.987,-2.9947,-2.986,-2.9965,-2.9892,-2.9919,-2.9921,-2.9927,-2.9935,-2.9839,-2.9991,-3.0241,-3.0267,-2.9939,-2.9936,-2.9933,0,-2.9688,-2.9771,-2.9864,-2.9879,-2.9892,-2.9937,-2.9944,-2.9959,-2.9989,-3.0023,-3.0042,-3.0086,-3.011,-3.0144,-3.0118,-3.0057,-3.0228,-3.0138,-3.0223,-3.0224,-3.0265,-3.0263,-3.0524,-3.0279,-3.0279,-3.0278,-3.0278,0,-2.9891,-2.9979,-2.9941,-2.9999,-3.0095,-3.0056,-3.0152,-3.0152,-3.0165,-3.0222,-3.0166,-3.0221,-3.0182,-3.0233,-3.0212,-3.0303,-3.0314,-3.0309,-3.0303,-3.0316,-3.0316,-3.0335,-3.0323,-3.0285,-3.0283,-3.0282,-3.0281,0,-3.0101,-3.0079,-3.0177,-3.0179,-3.0182,-3.0253,-3.0255,-3.0309,-3.0297,-3.0369,-3.0384,-3.0366,-3.0423,-3.0399,-3.0459,-3.0445,-3.0562,-3.0539,-3.0556,-3.0551,-3.0638,-3.0631,-3.0921,-3.0958,-3.0688,-3.069,-3.0692,0,-3.0233,-3.0298,-3.0308,-3.0341,-3.0352,-3.0407,-3.0437,-3.0401,-3.0434,-3.0461,-3.0511,-3.0563,-3.0602,-3.0696,-3.0689,-3.0734,-3.0713,-3.0812,-3.072,-3.073,-3.0717,-3.0714,-3.0721,-3.0832,-3.0835,-3.0837,-3.0839,0,-3.047,-3.0455,-3.05,-3.0542,-3.0579,-3.061,-3.0636,-3.0666,-3.0631,-3.0671,-3.0728,-3.0759,-3.0819,-3.0872,-3.0911,-3.0918,-3.0874,-3.0868,-3.089,-3.0905,-3.0912,-3.0911,-3.0608,-3.0862,-3.086,-3.0858,-3.0857,-3.0856,-3.0646,-3.0701,-3.0716,-3.0768,-3.0783,-3.0809,-3.0859,-3.0853,-3.09,-3.0946,-3.0921,-3.0988,-3.1004,-3.1053,-3.1066,-3.1117,-3.1079,-3.1111,-3.112,-3.1129,-3.1141,-3.0902,-3.1124,-3.1124,-3.1123,-3.1122,-3.1122,0,-3.0881,-3.0887,-3.0935,-3.0973,-3.1014,-3.0966,-3.0991,-3.1029,-3.1088,-3.1107,-3.1147,-3.1212,-3.1262,-3.1257,-3.1303,-3.1345,-3.1326,-3.1359,-3.1356,-3.1359,-3.1172,-3.1149,-3.1374,-3.1374,-3.1374,-3.1373,-3.1373,-3.1373,-3.1009,-3.11,-3.1087,-3.1185,-3.119,-3.1254,-3.1273,-3.1296,-3.1311,-3.1386,-3.1427,-3.1423,-3.1433,-3.1478,-3.1522,-3.1519,-3.154,-3.1581,-3.1571,-3.1397,-3.1372,-3.1348,-3.1326,-3.1585,-3.1585,-3.1753,-3.1755,-3.1756]},{"header":{"parameterUnit":"m.s-1","parameterCategory":1,"la1":30.2991,"la2":30.254,"lo1":-89.0895,"lo2":-89.0444,"dy":0.0017,"dx":0.0017,"nx":28,"ny":28,"refTime":"2025-09-06T09:00:00:Z","depth":0,"parameterNumber":3,"parameterNumberName":"V-component_of_WINDS"},"data":[0,0,0,0,0,0,0,0,0,0,0,0,0,0,0,0,0,0,0,0,0,0,0,0,0,0,0,0,0,0,0,0,0,0,0,0,0,0,0,0,0,0,0,0,0,0,0,0,0,0,0,0,0,0,0,0,0,0,-6.0201,-6.0202,0,-6.0264,-6.0265,-6.0265,-6.0176,-6.0173,-6.017,-6.0167,-6.0227,-6.0231,-6.0236,0,0,0,0,0,0,0,0,0,0,0,0,0,-5.9999,-6.0004,-6.0201,-6.0202,-6.0203,-6.0264,-6.0265,-6.0266,-6.0177,-6.0173,-6.0169,-6.0166,-6.0225,-6.0231,-6.0236,0,0,0,0,0,0,0,0,0,0,0,0,0,-6.0077,-6.0005,-6.0201,-6.0166,-6.0164,-6.0264,-6.0265,-6.0266,-6.0178,-6.0173,-6.0168,-6.0164,-6.0224,-6.023,-6.0237,-6.0373,0,0,-6.0257,-6.026,0,0,0,0,0,0,0,0,-6.0073,-6.0085,-6.0171,-6.0169,-6.0166,-6.0208,-6.0215,-6.0301,-6.0179,-6.0172,-6.0167,-6.0162,-6.0224,-6.023,-6.0252,-6.0375,-6.0378,-6.0258,-6.0262,-6.0265,-6.0267,0,0,0,0,0,0,0,-6.0067,-6.0081,-6.0226,-6.0172,-6.0169,-6.0145,-6.0151,-6.0231,-6.0224,-6.0172,-6.0166,-6.0175,-6.0222,-6.0246,-6.0253,-6.0379,-6.0258,-6.0264,-6.0268,-6.0271,-6.0614,-6.0619,0,0,0,0,0,0,-6.0067,-6.0077,-6.0224,-6.0228,-6.0107,-6.0153,-6.0159,-6.0199,-6.0222,-6.0222,-6.0179,-6.0171,-6.0237,-6.0245,-6.0255,-6.0414,-6.0265,-6.0271,-6.0275,-6.0609,-6.0615,-6.0621,0,0,0,0,0,0,-6.0063,-6.0081,-6.0221,-6.0151,-6.0167,-6.0161,-6.0207,-6.0203,-6.0227,-6.0228,-6.0225,-6.0206,-6.0233,-6.0245,-6.0344,-6.0415,-6.0274,-6.0281,-6.0603,-6.0611,-6.0618,-6.0735,0,0,0,0,0,0,-6.0058,-6.008,-6.0133,-6.0153,-6.0171,-6.0312,-6.0211,-6.0207,-6.0239,-6.0229,-6.0252,-6.0251,-6.0231,-6.0334,-6.0351,-6.0422,-6.0286,-6.0597,-6.0607,-6.0616,-6.0725,-6.0746,-6.0763,0,0,0,0,0,-6.0051,-6.0163,-6.0136,-6.0155,-6.0238,-6.0316,-6.0326,-6.0302,-6.0246,-6.0298,-6.0298,-6.025,-6.0405,-6.0345,-6.0363,-6.0437,-6.0592,-6.0604,-6.0615,-6.0716,-6.0741,-6.0763,0,0,0,0,0,0,-6.015,-6.0165,-6.0136,-6.0258,-6.0287,-6.0301,-6.0366,-6.033,-6.0374,-6.0362,-6.0328,-6.0334,-6.044,-6.0448,-6.0381,-6.0569,-6.0489,-6.0504,-6.0559,-6.0584,-6.0603,-6.0598,-6.0291,0,0,0,0,0,-6.0187,-6.0251,-6.0259,-6.0366,-6.0382,-6.0372,-6.0405,-6.0384,-6.0411,-6.0423,-6.043,-6.0457,-6.0511,-6.0548,-6.0598,-6.0725,-6.0728,-6.0785,-6.0804,-6.082,-6.0834,-6.09,-6.0925,-6.0658,-6.0658,-6.0658,0,0,-6.0262,-6.0278,-6.032,-6.0387,-6.0406,-6.0471,-6.0383,-6.0456,-6.0503,-6.0433,-6.0527,-6.0533,-6.0561,-6.0674,-6.0724,-6.0684,-6.0908,-6.0835,-6.0848,-6.0852,-6.0914,-6.0939,-6.0962,-6.0666,-6.0665,-6.0664,0,0,-6.0433,-6.0452,-6.0543,-6.0564,-6.0596,-6.0588,-6.061,-6.063,-6.0631,-6.0725,-6.0674,-6.0728,-6.0824,-6.0845,-6.0869,-6.1046,-6.1003,-6.1063,-6.1164,-6.1229,-6.125,-6.1268,-6.133,-6.1353,-6.1077,-6.1077,-6.1077,0,-6.0522,-6.062,-6.0593,-6.067,-6.07,-6.0641,-6.0731,-6.0753,-6.0798,-6.0819,-6.0774,-6.0891,-6.0906,-6.1023,-6.1066,-6.1087,-6.1109,-6.106,-6.125,-6.1268,-6.1284,-6.1343,-6.1367,-6.1084,-6.1083,-6.1083,-6.1082,0,-6.0727,-6.0796,-6.0865,-6.0912,-6.0949,-6.1033,-6.1016,-6.1057,-6.1032,-6.1029,-6.1124,-6.1139,-6.1191,-6.1217,-6.1194,-6.133,-6.1304,-6.1255,-6.1174,-6.1317,-6.1372,-6.1394,-6.1094,-6.1092,-6.109,-6.1088,0,0,-6.0963,-6.0994,-6.1019,-6.1039,-6.1069,-6.112,-6.12,-6.1251,-6.1286,-6.1319,-6.1384,-6.1465,-6.1419,-6.1446,-6.1424,-6.1481,-6.1619,-6.1424,-6.1424,-6.1459,-6.1768,-6.1805,-6.1831,-6.1591,-6.1595,-6.1599,-6.1766,0,-6.1132,-6.1271,-6.1249,-6.1383,-6.1444,-6.1389,-6.1457,-6.1482,-6.1481,-6.1531,-6.1528,-6.1586,-6.1522,-6.1538,-6.1592,-6.1591,-6.168,-6.1579,-6.1649,-6.1652,-6.1643,-6.186,-6.1899,-6.2056,-6.1787,-6.1791,-6.1793,0,-6.1349,-6.1391,-6.1531,-6.155,-6.1575,-6.1638,-6.1682,-6.1732,-6.1758,-6.1752,-6.1782,-6.1749,-6.1826,-6.1745,-6.1849,-6.178,-6.1807,-6.1811,-6.1816,-6.1821,-6.1731,-6.187,-6.2106,-6.2129,-6.1827,-6.1824,-6.1822,0,-6.1505,-6.1596,-6.1692,-6.171,-6.1735,-6.178,-6.1792,-6.1814,-6.1846,-6.1884,-6.1904,-6.1951,-6.1976,-6.2012,-6.1992,-6.1935,-6.2099,-6.2017,-6.2095,-6.2096,-6.2132,-6.213,-6.2375,-6.2152,-6.2151,-6.2151,-6.215,0,-6.1695,-6.1783,-6.1762,-6.1821,-6.1916,-6.1889,-6.1984,-6.1989,-6.2008,-6.2065,-6.2019,-6.2073,-6.2044,-6.2095,-6.208,-6.2167,-6.2179,-6.2176,-6.217,-6.218,-6.218,-6.2196,-6.2184,-6.2157,-6.2156,-6.2155,-6.2153,0,-6.1886,-6.1875,-6.1976,-6.1991,-6.1997,-6.2066,-6.2078,-6.2132,-6.2127,-6.2199,-6.2215,-6.2206,-6.2264,-6.2248,-6.231,-6.2299,-6.241,-6.2391,-6.2402,-6.2397,-6.2476,-6.2469,-6.2739,-6.2773,-6.2529,-6.2532,-6.2534,0,-6.2008,-6.2074,-6.2097,-6.2132,-6.2148,-6.2206,-6.2239,-6.2214,-6.2249,-6.2283,-6.2332,-6.2386,-6.2428,-6.2523,-6.2521,-6.2568,-6.2549,-6.2641,-6.2556,-6.2563,-6.2549,-6.2545,-6.2551,-6.2658,-6.266,-6.2663,-6.2665,0,-6.2225,-6.2217,-6.2267,-6.2315,-6.2355,-6.2391,-6.2423,-6.2454,-6.2431,-6.2473,-6.2532,-6.2565,-6.2629,-6.2682,-6.2725,-6.2735,-6.2696,-6.2691,-6.2712,-6.2721,-6.2724,-6.2723,-6.2447,-6.2685,-6.2683,-6.2682,-6.268,-6.268,-6.2384,-6.244,-6.2465,-6.2521,-6.2542,-6.2573,-6.2624,-6.2625,-6.2675,-6.2726,-6.2707,-6.2775,-6.2797,-6.2851,-6.2866,-6.2917,-6.2882,-6.2912,-6.2919,-6.2927,-6.2937,-6.2717,-6.2925,-6.2924,-6.2924,-6.2923,-6.2923,0,-6.2598,-6.2611,-6.2664,-6.271,-6.2754,-6.2715,-6.2747,-6.2786,-6.2847,-6.2871,-6.2914,-6.2981,-6.3032,-6.3035,-6.3082,-6.3122,-6.3105,-6.3136,-6.3132,-6.3134,-6.2966,-6.2943,-6.3149,-6.3149,-6.3148,-6.3148,-6.3148,-6.3148,-6.2715,-6.2807,-6.2801,-6.2902,-6.2913,-6.2981,-6.3002,-6.3029,-6.3049,-6.3127,-6.317,-6.3171,-6.3186,-6.3234,-6.3279,-6.3278,-6.3297,-6.3334,-6.3327,-6.3169,-6.3147,-6.3125,-6.3103,-6.3339,-6.3339,-6.349,-6.3492,-6.3493]}]]